Location: Deurze
(52.9838°N, 6.6090°E)
Time: 19:38:13
(UTC+00:00)

Cosmos 1536 - Pass Details

Date: 11 March 2026
Orbit: 482 x 504 km, 82.5° (Epoch: 20 April)

Event Time Altitude Azimuth Distance (km) Brightness Sun altitude
Exits shadow 19:58:41 62° 11° (N) 573 2.8 -22.5°
Drops below altitude 10° 20:01:54 10° 11° (N) 1,733 5.5 -22.9°
Sets 20:04:02 0° 11° (NNE) 2,625 6.5 -23.2°
